Weather History for Harrison, AR

Change the Weather History Date:

Tuesday, June 17, 2014

  Actual Average Record
Temperature  
Mean Temperature 80 °F 74 °F  
Max Temperature 87 °F 85 °F 100 °F (1936)
Min Temperature 73 °F 63 °F 46 °F (1917)
Degree Days  
Heating Degree Days 0 0  
Month to date heating degree days 0 3  
Since 1 June heating degree days 0 3  
Since 1 July heating degree days 4465 4001  
Cooling Degree Days 15 9  
Month to date cooling degree days 123 126  
Year to date cooling degree days 310 265  
Since 1 June cooling degree days 123 126  
Growing Degree Days 30 (Base 50)    
Moisture  
Dew Point 69 °F    
Average Humidity 72    
Maximum Humidity 87    
Minimum Humidity 57    
Precipitation  
Precipitation 0.00 in 0.14 in 3.52 in (1980)
Month to date precipitation 3.00 2.46  
Year to date precipitation 18.31 20.46  
Snow  
Snow 0.00 in 0.00 in - ()
Month to date snowfall 0.0 0.0  
Since 1 June snowfall 0.0 0.0  
Since 1 July snowfall 25.8 11.5  
Snow Depth 0.00 in    
Sea Level Pressure  
Sea Level Pressure 29.98 in    
Wind  
Wind Speed 9 mph (South)    
Max Wind Speed 17 mph    
Max Gust Speed 25 mph    
Visibility 10 miles    
Events      
T = Trace of Precipitation, MM = Missing Value Source: NWS Daily Summary

Daily Weather History Graph

Daily Weather History Graph

Search for Another Location

Airport:

Trip Planner

Search our weather history database for the weather conditions in past years. The results will help you decide how hot, cold, wet, or windy it might be!

Date:

Astronomy

Jun. 17, 2014 Rise Set
Actual Time 5:54 AM CDT 8:32 PM CDT
Civil Twilight 5:24 AM CDT 9:02 PM CDT
Nautical Twilight 4:46 AM CDT 9:40 PM CDT
Astronomical Twilight 4:04 AM CDT 10:22 PM CDT
Moon No Moon Rise 11:01 AM CDT (6/17)
Length of Visible Light 15h 38m
Length of Day
14h 37m
Waning Gibbous, 73% of the Moon is Illuminated
Jun 17
Waning Gibbous
Jun 19
Last Quarter
Jun 27
New
Jul 5
First Quarter
Jul 12
Full

Hourly Weather History & Observations

Time (CDT) Temp. Heat Index Dew Point Humidity Pressure Visibility Wind Dir Wind Speed Gust Speed Precip Events Conditions
12:30 AM 77.0 °F - 69.8 °F 78% 30.01 in 10.0 mi SSE 8.1 mph - N/A   Overcast
12:53 AM 77.0 °F - 70.0 °F 79% 29.95 in 10.0 mi SSE 9.2 mph - N/A   Overcast
1:53 AM 77.0 °F - 69.1 °F 76% 29.94 in 10.0 mi South 11.5 mph 19.6 mph N/A   Overcast
2:24 AM 77.0 °F - 69.8 °F 78% 29.99 in 10.0 mi South 10.4 mph - N/A   Scattered Clouds
2:53 AM 75.9 °F - 68.0 °F 76% 29.94 in 10.0 mi South 9.2 mph 17.3 mph N/A   Clear
3:53 AM 75.0 °F - 66.9 °F 76% 29.94 in 10.0 mi South 12.7 mph 19.6 mph N/A   Clear
4:53 AM 73.9 °F - 66.9 °F 79% 29.96 in 10.0 mi South 4.6 mph - N/A   Scattered Clouds
5:20 AM 73.4 °F - 66.2 °F 78% 30.01 in 10.0 mi South 6.9 mph - N/A   Mostly Cloudy
5:38 AM 73.4 °F - 66.2 °F 78% 30.01 in 10.0 mi SSW 5.8 mph - N/A   Scattered Clouds
5:53 AM 73.9 °F - 66.9 °F 79% 29.97 in 10.0 mi South 6.9 mph - N/A   Partly Cloudy
6:53 AM 75.0 °F - 68.0 °F 79% 29.98 in 10.0 mi South 8.1 mph - N/A   Partly Cloudy
7:23 AM 75.2 °F - 68.0 °F 78% 30.03 in 10.0 mi SSW 6.9 mph - N/A   Mostly Cloudy
7:53 AM 75.9 °F - 68.0 °F 76% 30.00 in 10.0 mi South 5.8 mph - N/A   Mostly Cloudy
8:53 AM 77.0 °F - 68.0 °F 74% 30.02 in 10.0 mi South 8.1 mph - N/A   Overcast
9:31 AM 80.6 °F 83.2 °F 68.0 °F 65% 30.08 in 10.0 mi South 10.4 mph 17.3 mph N/A   Mostly Cloudy
9:53 AM 80.1 °F 82.7 °F 68.0 °F 67% 30.03 in 10.0 mi South 11.5 mph 18.4 mph N/A   Scattered Clouds
10:53 AM 80.1 °F 82.3 °F 66.9 °F 64% 30.03 in 10.0 mi South 9.2 mph 16.1 mph N/A   Mostly Cloudy
11:53 AM 82.9 °F 85.8 °F 68.0 °F 60% 30.01 in 10.0 mi SSW 9.2 mph 18.4 mph N/A   Partly Cloudy
12:53 PM 84.9 °F 88.8 °F 69.1 °F 59% 30.00 in 10.0 mi SSW 10.4 mph 18.4 mph N/A   Scattered Clouds
1:53 PM 84.9 °F 88.2 °F 68.0 °F 57% 29.98 in 10.0 mi South 12.7 mph 21.9 mph N/A   Scattered Clouds
2:53 PM 86.0 °F 90.1 °F 69.1 °F 57% 29.96 in 10.0 mi South 10.4 mph 19.6 mph N/A   Mostly Cloudy
3:53 PM 84.9 °F 88.8 °F 69.1 °F 59% 29.96 in 10.0 mi South 8.1 mph - N/A   Clear
4:53 PM 86.0 °F 90.7 °F 70.0 °F 59% 29.94 in 10.0 mi South 12.7 mph 18.4 mph N/A   Partly Cloudy
5:53 PM 82.9 °F 87.0 °F 70.0 °F 65% 29.94 in 10.0 mi South 10.4 mph - N/A   Clear
6:53 PM 81.0 °F 84.4 °F 70.0 °F 69% 29.94 in 10.0 mi South 9.2 mph - N/A   Clear
7:53 PM 80.1 °F 83.2 °F 70.0 °F 71% 29.95 in 10.0 mi South 10.4 mph - N/A   Clear
8:53 PM 78.1 °F - 70.0 °F 76% 29.94 in 10.0 mi SSE 8.1 mph - N/A   Clear
9:53 PM 75.9 °F - 70.0 °F 82% 29.96 in 10.0 mi SSE 6.9 mph - N/A   Clear
10:53 PM 75.9 °F - 70.0 °F 82% 29.98 in 10.0 mi SSE 8.1 mph - N/A   Mostly Cloudy
11:01 PM 75.2 °F - 69.8 °F 83% 30.02 in 10.0 mi SSE 9.2 mph - N/A   Scattered Clouds
11:53 PM 73.9 °F - 70.0 °F 87% 29.98 in 10.0 mi SSE 8.1 mph - N/A   Clear